Weather in Tuyên Quang

Vietnam     21°51′06″N   105°12′45″E
temp.,
°C
wind,
m/s
gust,
m/s
humid.,
%
clouds,
%
prec.,
mm/h
press.,
hPa
HPBL,
m
24 january, mon
mon2401:00+19ene119499 0.1 101141
04:00+19n1193100 0.1 101035
07:00+19nne1193100 0.3 101229
10:00+20n0186100 0.1 1014232
13:00+23nnw117234 0.3 1011605
16:00+24se126157 0.1 10091191
19:00+21se117870 0.1 101114
22:00+20ese118588 0.1 101321
25 january, tue
tue2501:00+20ese119099 0.2 101347
04:00+19se1191100 0.4 101239
07:00+19se1292100 1.0 101469
10:00+20se1485100 0.4 1015426
13:00+24sse346895 1.0 10121152
16:00+22ese257571 0.1 1010613
19:00+19ene229067 0.2 101245
22:00+19ese119199 0.0 101352
26 january, wed
wed2601:00+19se1192100 0.1 101348
04:00+19se1194100 0.4 101261
07:00+19se1194100 0.9 101454
10:00+20ese1287100 0.4 1015340
13:00+24se236645 0.9 10121143
16:00+25se246430 0.2 10101064
19:00+21e118328 0.3 101213
22:00+20ese119268 0.0 101339
27 january, thu
thu2701:00+20ese1293100 0.1 1013166
04:00+20e1295100 0.6 1012107
07:00+20e1195100 1.0 101350
10:00+22sse138675 0.2 1015446
13:00+25sse246798 0.9 10111182
16:00+25ese246860 0.2 10101035
19:00+21ese118715 0.3 101224
22:00+20e119489 0.0 101318
28 january, fri
fri2801:00+20ese159299 0.4 1013358
04:00+20ene1294100 0.6 1012100
07:00+20ene1194100 0.9 101353
10:00+21ese138880 0.3 1014346
13:00+24ese137383 0.9 1011815
16:00+24se257380 0.3 1009495
19:00+21ene218795 0.4 101027
22:00+20e129266 1.1 101156